• Processing (Info)

  • MPEC 2023-H136 : 2023 GP3

    The following Minor Planet Electronic Circular may be linked-to from your own Web pages, but must not otherwise be redistributed electronically.

    A form allowing access to any MPEC is at the bottom of this page.


    Read MPEC 2023-H135 Read MPEC 2023-H137


    M.P.E.C. 2023-H136                               Issued 2023 April 22, 14:33 UT
    
         The Minor Planet Electronic Circulars contain information on unusual
             minor planets, routine data on comets and natural satellites,
             and occasional editorial announcements.  They are published
        on behalf of Division F of the International Astronomical Union by the
              Minor Planet Center, Smithsonian Astrophysical Observatory,
                              Cambridge, MA 02138, U.S.A.
    			  
                 Prepared using the Tamkin Foundation Computer Network
    
                                  MPC@CFA.HARVARD.EDU
                URL https://www.minorplanetcenter.net/    ISSN 1523-6714
    
                                    2023 GP3                                 
    
    
    Observations:
         K23G03P* C2023 04 14.59641717 31 31.630+05 00 38.46         21.26wUEH136F52
         K23G03P  C2023 04 14.60482617 31 34.391+05 01 05.59         20.99wUEH136F52
         K23G03P  C2023 04 14.61322617 31 37.123+05 01 32.27         21.03wUEH136F52
         K23G03P  C2023 04 14.62167917 31 39.860+05 01 58.90         21.38wUEH136F52
         K23G03P 3C2023 04 15.54539617 38 40.751+05 38 53.00         21.77GVEH136T14
         K23G03P 3C2023 04 15.54661017 38 40.907+05 38 55.42         21.94GVEH136T14
         K23G03P 3C2023 04 15.54758617 38 41.067+05 38 57.15         21.85GVEH136T14
         K23G03P 3C2023 04 15.54858817 38 41.214+05 38 59.10         21.97GVEH136T14
         K23G03P 3C2023 04 15.54960117 38 41.357+05 39 01.09         22.32GVEH136T14
         K23G03P 3C2023 04 15.55058717 38 41.495+05 39 02.87         22.08GVEH136T14
         K23G03P 3C2023 04 22.54828117 51 03.747+06 48 58.83         24.25GVEH136T14
         K23G03P 3C2023 04 22.54984117 51 03.683+06 48 58.89         23.40GVEH136T14
    
    Observer details:
    F52 Pan-STARRS 2, Haleakala.  Observers J. Bulger, T. Lowe, A. Schultz, I.
        Smith.  Measurers K. Chambers, S. Chastel, T. de Boer, J. Fairlamb, H.
        Gao, M. Huber, C.-C. Lin, E. Magnier, Y. Ramanjooloo, R. Wainscoat, R.
        Weryk.  1.8-m Ritchey-Chretien + CCD.
    T14 Canada-France-Hawaii Telescope, Maunakea.  Observers R. Wainscoat, H.
        Januszewski, T. Burdullis, C. Cunningham, E. Bertin.  Measurers R. Weryk,
        R. Wainscoat.  3.6-m Canada-France-Hawaii Telescope + CCD.
    
    Orbital elements:
    2023 GP3                                                 Earth MOID = 0.0017 AU
    Epoch 2023 Feb. 25.0 TT = JDT 2460000.5                 Veres                   
    M 348.43003              (2000.0)            P               Q                  
    n   0.35151899     Peri.  344.15360     -0.99450583     +0.09659852             
    a   1.9883989      Node   201.51295     -0.08005856     -0.95010544             
    e   0.5014159      Incl.    6.31473     -0.06744463     -0.29659463             
    P   2.80           H   28.58          G   0.15           U   7                  
    Residuals in seconds of arc
    230414 F52  0.1-  0.0     230415 T14  0.0   0.0     230415 T14  0.1+  0.0
    230414 F52  0.1+  0.0     230415 T14  0.3-  0.1+    230415 T14  0.1+  0.1-
    230414 F52  0.0   0.0     230415 T14  0.0   0.0     230422 T14  0.0   0.1+
    230414 F52  0.1-  0.0     230415 T14  0.1+  0.0     230422 T14  0.0   0.2-
    
    Ephemeris:
    2023 GP3                 a,e,i = 1.99, 0.50, 6                   q = 0.9914
    Date    TT    R. A. (2000) Decl.     Delta      r    Elong.  Phase     V
    2023 03 23    05 52 00.8 -06 57 19   0.08901 0.9950    86.5    88.4    26.4
    ...
    2023 04 07    06 07 49.4 -08 08 05   0.02182 0.9963    77.8   100.9    23.9
    ...
    2023 04 15    17 34 58.0 +05 22 06   0.01517 1.0101   117.3    61.9    21.7
    ...
    2023 04 21    17 50 10.9 +06 44 45   0.04255 1.0255   118.2    59.7    23.9
    2023 04 22    17 50 46.2 +06 48 12   0.04710 1.0285   118.9    58.8    24.1
    2023 04 23    17 51 10.5 +06 50 39   0.05166 1.0317   119.5    58.0    24.3
    ...
    2023 04 29    17 51 20.3 +06 51 48   0.07895 1.0532   124.2    52.2    25.1
    ...
    2023 05 07    17 48 18.1 +06 30 53   0.1155  1.0881   131.0    44.4    25.8
    ...
    2023 05 22    17 37 20.6 +04 56 42   0.1871  1.1688   144.0    30.6    26.6
    
    M. P. C. Staff               (C) Copyright 2023 MPC           M.P.E.C. 2023-H136
    


    Read MPEC 2023-H135 Read MPEC 2023-H137


    MPEC number:

    Enter an MPEC number in one of the following forms:

    • 1997-B01 (the full form)
    • J97B01 (the packed version of the full form)
    • B01 (the abbreviated form)